Date,TemperatureHighF,TemperatureAvgF,TemperatureLowF,DewpointHighF,DewpointAvgF,DewpointLowF,HumidityHigh,HumidityAvg,HumidityLow,PressureMaxIn,PressureMinIn,WindSpeedMaxMPH,WindSpeedAvgMPH,GustSpeedMaxMPH,PrecipitationSumIn
2013-6-1,58.3,50.1,42.6,53.3,44.0,39.6,97,80,59,30.32,30.19,20,6,20,0.05
2013-6-2,62.9,52.2,39.8,49.4,44.5,37.5,96,76,56,30.44,30.32,14,4,14,0.00
2013-6-3,67.3,57.8,50.1,59.2,54.0,47.6,99,88,73,30.49,30.44,12,2,12,0.00
2013-6-4,73.9,61.2,50.1,56.7,52.6,48.0,100,76,52,30.48,30.30,17,4,17,0.00
2013-6-5,70.8,58.3,50.8,59.9,53.4,47.6,96,85,60,30.30,30.14,10,2,10,0.31
2013-6-6,72.7,58.8,45.1,56.9,50.8,43.5,98,77,47,30.25,30.17,12,2,12,0.00
2013-6-7,70.9,58.9,44.6,56.9,50.4,42.4,96,75,51,30.30,30.25,13,4,13,0.00
2013-6-8,74.6,59.9,46.4,56.2,49.2,44.2,95,70,41,30.30,30.09,9,3,9,0.00
2013-6-9,70.6,57.5,48.5,56.2,51.0,46.5,96,80,55,30.12,29.96,12,4,12,0.00
2013-6-10,63.9,55.6,49.6,54.7,50.9,46.8,93,85,68,30.00,29.88,12,4,12,0.00
2013-6-11,59.2,54.2,49.2,56.5,51.9,46.4,99,92,71,29.89,29.63,17,5,17,0.19
2013-6-12,61.5,55.8,51.3,56.7,53.3,49.3,100,92,71,29.64,29.58,17,6,17,0.20
2013-6-13,59.5,53.3,46.4,49.6,47.0,44.1,96,80,59,29.79,29.56,22,7,22,0.00
2013-6-14,65.2,55.2,46.7,55.4,49.0,45.6,97,81,62,29.80,29.53,29,8,29,0.11
2013-6-15,53.2,49.7,46.2,53.2,49.2,45.7,100,98,92,29.59,29.35,30,10,30,0.89
2013-6-16,66.8,56.1,47.9,55.7,51.2,47.9,100,85,58,29.98,29.59,12,3,12,0.00
2013-6-17,67.6,58.3,48.5,56.6,52.7,46.9,97,82,59,30.05,29.98,9,2,9,0.00
2013-6-18,68.8,61.2,54.5,57.3,54.0,50.9,95,78,58,30.01,29.92,13,3,13,0.00
2013-6-19,65.3,57.0,50.4,51.5,49.5,45.8,96,77,54,30.02,29.95,20,4,20,0.00
2013-6-20,72.5,59.2,49.1,58.3,52.2,45.5,93,78,53,30.01,29.78,10,2,10,0.00
2013-6-21,66.8,59.4,55.1,56.9,52.8,48.6,95,80,58,29.78,29.57,13,4,13,0.00
2013-6-22,62.6,54.9,51.1,55.4,52.2,49.9,100,91,72,29.57,29.28,20,7,20,0.33
2013-6-23,59.2,54.3,50.7,54.9,50.6,45.4,100,88,77,29.96,29.38,26,11,27,0.25
2013-6-24,59.5,53.4,47.6,47.5,45.3,42.7,88,74,60,30.26,29.96,20,8,20,0.00
2013-6-25,63.9,54.9,44.6,53.2,49.0,41.8,92,81,65,30.39,30.26,13,3,13,0.00
2013-6-26,64.5,56.4,48.6,52.4,48.4,45.0,95,76,57,30.44,30.39,14,6,14,0.00
2013-6-27,59.6,53.6,49.1,59.2,52.0,45.3,100,94,79,30.42,30.15,14,4,14,0.27
2013-6-28,59.0,55.4,50.7,58.2,53.7,46.1,100,94,78,30.16,29.94,20,6,20,0.13
2013-6-29,58.7,53.7,49.1,55.9,50.7,46.3,99,90,80,30.14,30.08,20,6,20,0.00
2013-6-30,59.6,55.6,51.1,58.6,53.4,48.0,100,92,84,30.10,29.86,24,9,24,0.15